Weather History for Kendall, FL

Change the Weather History Date:

Monday, February 11, 2013

  Actual Average Record
Temperature  
Mean Temperature 74 °F -  
Max Temperature 80 °F 77 °F 85 °F (1990)
Min Temperature 69 °F 53 °F 42 °F (2000)
Cooling Degree Days 10    
Growing Degree Days 24 (Base 50)    
Moisture  
Dew Point 64 °F    
Average Humidity 70    
Maximum Humidity 84    
Minimum Humidity 58    
Precipitation  
Precipitation 0.00 in - - ()
Sea Level Pressure  
Sea Level Pressure 30.17 in    
Wind  
Wind Speed 10 mph (SE)    
Max Wind Speed 16 mph    
Max Gust Speed 22 mph    
Visibility 10 miles    
Events      
Averages and records for this station are not official NWS values.
T = Trace of Precipitation, MM = Missing Value Source: NWS Daily Summary

Daily Weather History Graph

Daily Weather History Graph

Search for Another Location

Airport:

Trip Planner

Search our weather history database for the weather conditions in past years. The results will help you decide how hot, cold, wet, or windy it might be!

Date:

Astronomy

Feb. 11, 2013 Rise Set
Actual Time 6:59 AM EST 6:12 PM EST
Civil Twilight 6:35 AM EST 6:36 PM EST
Nautical Twilight 6:08 AM EST 7:03 PM EST
Astronomical Twilight 5:41 AM EST 7:30 PM EST
Moon 7:37 AM EST (2/11) 7:50 PM EST (2/11)
Length of Visible Light 12h 00m
Length of Day
11h 13m
Waxing Crescent, 3% of the Moon is Illuminated
Feb 11
Waxing Crescent
Feb 17
First Quarter
Feb 25
Full
Mar 4
Last Quarter
Mar 11
New

Hourly Weather History & Observations

Time (EST) Temp. Heat Index Dew Point Humidity Pressure Visibility Wind Dir Wind Speed Gust Speed Precip Events Conditions
12:53 AM 71.1 °F - 63.0 °F 75% 30.20 in 10.0 mi ESE 9.2 mph - N/A   Scattered Clouds
1:53 AM 71.1 °F - 63.0 °F 75% 30.19 in 10.0 mi SE 8.1 mph - N/A   Partly Cloudy
2:53 AM 69.1 °F - 62.1 °F 78% 30.17 in 10.0 mi ESE 6.9 mph - N/A   Clear
3:53 AM 69.1 °F - 62.1 °F 78% 30.16 in 10.0 mi ESE 6.9 mph - N/A   Clear
4:53 AM 70.0 °F - 64.0 °F 81% 30.16 in 10.0 mi ESE 8.1 mph - 0.00 in   Mostly Cloudy
5:53 AM 70.0 °F - 64.0 °F 81% 30.16 in 10.0 mi ESE 9.2 mph - N/A   Clear
6:53 AM 69.8 °F - 64.4 °F 83% 30.18 in 10.0 mi ESE 8.1 mph - N/A   Clear
7:53 AM 72.0 °F - 64.0 °F 76% 30.19 in 10.0 mi SE 9.2 mph - N/A   Clear
8:53 AM 75.0 °F - 64.0 °F 69% 30.20 in 10.0 mi ESE 13.8 mph - N/A   Partly Cloudy
9:53 AM 77.0 °F - 64.0 °F 64% 30.22 in 10.0 mi SE 13.8 mph 21.9 mph N/A   Mostly Cloudy
10:00 AM 77.0 °F - 64.4 °F 65% 30.22 in 10.0 mi ESE 15.0 mph 20.7 mph N/A   Mostly Cloudy
10:13 AM 77.0 °F - 62.6 °F 61% 30.22 in 10.0 mi ESE 16.1 mph - N/A   Overcast
10:22 AM 77.0 °F - 62.6 °F 61% 30.22 in 10.0 mi SE 10.4 mph - N/A   Overcast
10:30 AM 77.0 °F - 62.6 °F 61% 30.22 in 10.0 mi SE 13.8 mph 19.6 mph N/A   Overcast
10:53 AM 77.0 °F - 63.0 °F 62% 30.22 in 10.0 mi SE 13.8 mph - N/A   Overcast
11:53 AM 80.1 °F 81.7 °F 64.0 °F 58% 30.21 in 10.0 mi SE 13.8 mph 20.7 mph N/A   Mostly Cloudy
12:53 PM 79.0 °F - 64.0 °F 60% 30.19 in 10.0 mi SE 11.5 mph - N/A   Overcast
1:53 PM 77.0 °F - 63.0 °F 62% 30.17 in 10.0 mi ESE 13.8 mph 18.4 mph N/A   Overcast
2:53 PM 79.0 °F - 63.0 °F 58% 30.15 in 10.0 mi SE 13.8 mph - N/A   Mostly Cloudy
3:53 PM 78.1 °F - 63.0 °F 60% 30.14 in 10.0 mi SE 12.7 mph - N/A   Mostly Cloudy
4:53 PM 77.0 °F - 63.0 °F 62% 30.13 in 10.0 mi SE 12.7 mph 18.4 mph N/A   Partly Cloudy
5:53 PM 75.0 °F - 64.0 °F 69% 30.13 in 10.0 mi SE 10.4 mph - N/A   Clear
6:53 PM 73.0 °F - 64.0 °F 73% 30.13 in 10.0 mi SE 8.1 mph - N/A   Clear
7:53 PM 73.0 °F - 64.0 °F 73% 30.14 in 10.0 mi SE 6.9 mph - N/A   Clear
8:53 PM 72.0 °F - 64.0 °F 76% 30.15 in 10.0 mi SE 4.6 mph - N/A   Clear
9:53 PM 71.1 °F - 64.0 °F 78% 30.14 in 10.0 mi SE 5.8 mph - N/A   Clear
10:53 PM 70.0 °F - 64.0 °F 81% 30.14 in 10.0 mi ESE 4.6 mph - N/A   Clear
11:53 PM 70.0 °F - 64.9 °F 84% 30.13 in 10.0 mi SE 4.6 mph - N/A   Clear